Location: Cerezo de Arriba
(41.2389°N, 3.5585°W)
Time: 15:05:04
(UTC+00:00)

Cosmos 1782 - Pass Details

Date: 19 May 2025
Orbit: 478 x 489 km, 82.5° (Epoch: 23 June)

Event Time Altitude Azimuth Distance (km) Brightness Sun altitude
Rises 20:18:44 0° 186° (S) 2,555 5.9 -8.6°
Reaches altitude 10° 20:20:50 10° 186° (S) 1,677 5.0 -8.9°
Maximum altitude 20:24:31 90° 77° (ENE) 496 2.6 -9.5°
Drops below altitude 10° 20:28:13 10° 8° (N) 1,687 5.7 -10.0°
Sets 20:30:19 0° 8° (N) 2,571 6.7 -10.3°
